Hulianwang W. Digui 12-05

operational
NORAD ID: 65999 Int'l Des: 2025-231 Owner: ZXW Country: CN Constellation: xingwang
NOTLE

About Hulianwang W. Digui 12-05

Description loading...

Live Position

Loading 3D Globe...

Upcoming Passes

Altitude History

Altitude vs Time

uPlot chart will show altitude changes over time

Two-Line Element Set

1 65999U 25231E 25316.72467832 .00000121 00000-0 18258-3 0 9998
2 65999 50.0018 245.1327 0000287 331.9932 28.0955 14.00180423 3897
Epoch: Nov 12, 2025 • Age: 57 hours

Current Status

Altitude 895.2 km
Velocity 7.41 km/s
Sub-Earth Point -7.69°S, 34.87°W
Launch Date Oct 16, 2025
Age 30 days
Type other

Technical Details

Classification Payload
Mass 800.00 kg
Dry Mass 800.00 kg
Total Mass 800.00 kg
Length 3.00 m
Diameter 1.00 m
Span 10.00 m
Shape Box + 2 Pan
Manufacturer CAST
Bus Type Guowang C
Phase Status In Orbit
Owner/State ZXW/CN

Large Constellations

Loading constellations...